Time,TemperatureF,DewpointF,PressureIn,WindDirection,WindDirectionDegrees,WindSpeedMPH,WindSpeedGustMPH,Humidity,HourlyPrecipIn,Conditions,Clouds,dailyrainin,SoftwareType,DateUTC
2013-02-21 00:02:00,27.0,14.0,30.09,West,260,8.0,16.0,58,0.00,,,0.00,,2013-02-21 05:02:00,
2013-02-21 00:12:00,27.0,14.0,30.09,West,260,8.0,16.0,58,0.00,,,0.00,,2013-02-21 05:12:00,
2013-02-21 00:22:00,27.0,15.0,30.10,WNW,302,10.0,19.0,59,0.00,,,0.00,,2013-02-21 05:22:00,
2013-02-21 00:35:00,27.0,15.0,30.10,WNW,302,10.0,19.0,59,0.00,,,0.00,,2013-02-21 05:35:00,
2013-02-21 00:46:00,27.0,15.0,30.10,WNW,302,10.0,19.0,59,0.00,,,0.00,,2013-02-21 05:46:00,
2013-02-21 01:01:00,27.0,14.0,30.09,NNW,331,14.0,22.0,58,0.00,,,0.00,,2013-02-21 06:01:00,
2013-02-21 01:11:00,27.0,14.0,30.09,NNW,331,14.0,22.0,58,0.00,,,0.00,,2013-02-21 06:11:00,
2013-02-21 01:21:00,27.0,14.0,30.09,West,269,9.0,20.0,58,0.00,,,0.00,,2013-02-21 06:21:00,
2013-02-21 01:31:00,27.0,14.0,30.09,West,269,9.0,20.0,58,0.00,,,0.00,,2013-02-21 06:31:00,
2013-02-21 01:42:00,27.0,14.0,30.09,West,269,9.0,20.0,58,0.00,,,0.00,,2013-02-21 06:42:00,
2013-02-21 01:52:00,26.0,14.0,30.08,WNW,291,11.0,20.0,59,0.00,,,0.00,,2013-02-21 06:52:00,
2013-02-21 02:01:00,26.0,14.0,30.08,WNW,291,11.0,20.0,59,0.00,,,0.00,,2013-02-21 07:01:00,
2013-02-21 02:11:00,26.0,14.0,30.08,WNW,299,7.0,17.0,60,0.00,,,0.00,,2013-02-21 07:11:00,
2013-02-21 02:21:00,26.0,14.0,30.08,WNW,299,7.0,17.0,60,0.00,,,0.00,,2013-02-21 07:21:00,
2013-02-21 02:32:00,26.0,14.0,30.08,WNW,299,7.0,17.0,60,0.00,,,0.00,,2013-02-21 07:32:00,
2013-02-21 02:42:00,26.0,14.0,30.09,West,276,6.0,16.0,61,0.00,,,0.00,,2013-02-21 07:42:00,
2013-02-21 02:52:00,26.0,14.0,30.09,West,276,6.0,16.0,61,0.00,,,0.00,,2013-02-21 07:52:00,
2013-02-21 03:01:00,26.0,14.0,30.09,West,276,6.0,16.0,61,0.00,,,0.00,,2013-02-21 08:01:00,
2013-02-21 03:11:00,26.0,14.0,30.09,West,276,6.0,16.0,61,0.00,,,0.00,,2013-02-21 08:11:00,
2013-02-21 03:21:00,25.0,13.0,30.09,NW,304,7.0,17.0,61,0.00,,,0.00,,2013-02-21 08:21:00,
2013-02-21 03:32:00,25.0,13.0,30.09,NW,304,7.0,17.0,61,0.00,,,0.00,,2013-02-21 08:32:00,
2013-02-21 03:42:00,25.0,13.0,30.09,NW,304,7.0,17.0,61,0.00,,,0.00,,2013-02-21 08:42:00,
2013-02-21 03:52:00,25.0,14.0,30.08,WNW,298,7.0,18.0,62,0.00,,,0.00,,2013-02-21 08:52:00,
2013-02-21 04:01:00,25.0,14.0,30.08,WNW,298,7.0,18.0,62,0.00,,,0.00,,2013-02-21 09:01:00,
2013-02-21 04:11:00,25.0,14.0,30.08,WNW,298,7.0,18.0,62,0.00,,,0.00,,2013-02-21 09:11:00,
2013-02-21 04:22:00,25.0,14.0,30.08,West,260,6.0,17.0,63,0.00,,,0.00,,2013-02-21 09:22:00,
2013-02-21 04:32:00,25.0,14.0,30.08,West,260,6.0,17.0,63,0.00,,,0.00,,2013-02-21 09:32:00,
2013-02-21 04:42:00,25.0,14.0,30.08,West,260,6.0,17.0,63,0.00,,,0.00,,2013-02-21 09:42:00,
2013-02-21 04:52:00,24.0,14.0,30.09,NNW,332,3.0,14.0,65,0.00,,,0.00,,2013-02-21 09:52:00,
2013-02-21 05:01:00,24.0,14.0,30.09,NNW,332,3.0,14.0,65,0.00,,,0.00,,2013-02-21 10:01:00,
2013-02-21 05:11:00,24.0,14.0,30.09,NNW,332,3.0,14.0,65,0.00,,,0.00,,2013-02-21 10:11:00,
2013-02-21 05:21:00,24.0,14.0,30.10,West,263,9.0,12.0,66,0.00,,,0.00,,2013-02-21 10:21:00,
2013-02-21 05:31:00,24.0,14.0,30.10,West,263,9.0,12.0,66,0.00,,,0.00,,2013-02-21 10:31:00,
2013-02-21 05:41:00,24.0,14.0,30.10,West,263,9.0,12.0,66,0.00,,,0.00,,2013-02-21 10:41:00,
2013-02-21 05:51:00,24.0,14.0,30.11,West,261,4.0,14.0,66,0.00,,,0.00,,2013-02-21 10:51:00,
2013-02-21 06:01:00,24.0,14.0,30.11,West,261,4.0,14.0,66,0.00,,,0.00,,2013-02-21 11:01:00,
2013-02-21 06:11:00,24.0,14.0,30.11,West,261,4.0,14.0,66,0.00,,,0.00,,2013-02-21 11:11:00,
2013-02-21 06:21:00,24.0,14.0,30.11,SSW,203,14.0,14.0,65,0.00,,,0.00,,2013-02-21 11:21:00,
2013-02-21 06:31:00,24.0,14.0,30.11,SSW,203,14.0,14.0,65,0.00,,,0.00,,2013-02-21 11:31:00,
2013-02-21 06:41:00,24.0,14.0,30.11,SSW,203,14.0,14.0,65,0.00,,,0.00,,2013-02-21 11:41:00,
2013-02-21 06:52:00,25.0,15.0,30.11,WNW,283,5.0,16.0,64,0.00,,,0.00,,2013-02-21 11:52:00,
2013-02-21 07:01:00,25.0,15.0,30.11,WNW,283,5.0,16.0,64,0.00,,,0.00,,2013-02-21 12:01:00,
2013-02-21 07:11:00,25.0,15.0,30.11,WNW,283,5.0,16.0,64,0.00,,,0.00,,2013-02-21 12:11:00,
2013-02-21 07:22:00,25.0,15.0,30.11,West,262,11.0,16.0,65,0.00,,,0.00,,2013-02-21 12:22:00,
2013-02-21 07:32:00,25.0,15.0,30.11,West,262,11.0,16.0,65,0.00,,,0.00,,2013-02-21 12:32:00,
2013-02-21 07:43:00,25.0,15.0,30.11,West,262,11.0,16.0,65,0.00,,,0.00,,2013-02-21 12:43:00,
2013-02-21 07:53:00,26.0,15.0,30.11,NW,312,9.0,17.0,63,0.00,,,0.00,,2013-02-21 12:53:00,
2013-02-21 08:02:00,26.0,15.0,30.11,NW,312,9.0,17.0,63,0.00,,,0.00,,2013-02-21 13:02:00,
2013-02-21 08:12:00,26.0,15.0,30.11,NW,312,9.0,17.0,63,0.00,,,0.00,,2013-02-21 13:12:00,
2013-02-21 08:22:00,26.0,15.0,30.11,NNW,337,6.0,16.0,62,0.00,,,0.00,,2013-02-21 13:22:00,
2013-02-21 08:32:00,26.0,15.0,30.11,NNW,337,6.0,16.0,62,0.00,,,0.00,,2013-02-21 13:32:00,
2013-02-21 08:42:00,26.0,15.0,30.11,NNW,337,6.0,16.0,62,0.00,,,0.00,,2013-02-21 13:42:00,
2013-02-21 08:52:00,28.0,16.0,30.12,West,277,7.0,17.0,60,0.00,,,0.00,,2013-02-21 13:52:00,
2013-02-21 09:02:00,28.0,16.0,30.12,West,277,7.0,17.0,60,0.00,,,0.00,,2013-02-21 14:02:00,
2013-02-21 09:11:00,28.0,16.0,30.12,West,277,7.0,17.0,60,0.00,,,0.00,,2013-02-21 14:11:00,
2013-02-21 09:22:00,28.0,14.0,30.12,NNW,335,12.0,21.0,56,0.00,,,0.00,,2013-02-21 14:22:00,
2013-02-21 09:32:00,28.0,14.0,30.12,NNW,335,12.0,21.0,56,0.00,,,0.00,,2013-02-21 14:32:00,
2013-02-21 09:42:00,28.0,14.0,30.12,NNW,335,12.0,21.0,56,0.00,,,0.00,,2013-02-21 14:42:00,
2013-02-21 09:52:00,29.0,14.0,30.12,WSW,249,12.0,21.0,53,0.00,,,0.00,,2013-02-21 14:52:00,
2013-02-21 10:02:00,29.0,14.0,30.12,WSW,249,12.0,21.0,53,0.00,,,0.00,,2013-02-21 15:02:00,
2013-02-21 10:12:00,29.0,14.0,30.12,WSW,249,12.0,21.0,53,0.00,,,0.00,,2013-02-21 15:12:00,
2013-02-21 10:22:00,31.0,15.0,30.11,NW,309,7.0,22.0,52,0.00,,,0.00,,2013-02-21 15:22:00,
2013-02-21 10:32:00,31.0,15.0,30.11,NW,309,7.0,22.0,52,0.00,,,0.00,,2013-02-21 15:32:00,
2013-02-21 10:42:00,31.0,15.0,30.11,NW,309,7.0,22.0,52,0.00,,,0.00,,2013-02-21 15:42:00,
2013-02-21 10:52:00,31.0,15.0,30.11,NNW,333,5.0,23.0,51,0.00,,,0.00,,2013-02-21 15:52:00,
2013-02-21 11:01:00,31.0,15.0,30.11,NNW,333,5.0,23.0,51,0.00,,,0.00,,2013-02-21 16:01:00,
2013-02-21 11:12:00,31.0,15.0,30.11,NNW,333,5.0,23.0,51,0.00,,,0.00,,2013-02-21 16:12:00,
2013-02-21 11:22:00,31.0,15.0,30.11,NNW,333,5.0,23.0,51,0.00,,,0.00,,2013-02-21 16:22:00,
2013-02-21 11:42:00,33.0,16.0,30.10,NW,304,14.0,29.0,50,0.00,,,0.00,,2013-02-21 16:42:00,
2013-02-21 11:52:00,33.0,16.0,30.10,NW,304,14.0,29.0,50,0.00,,,0.00,,2013-02-21 16:52:00,
2013-02-21 12:02:00,33.0,16.0,30.10,NW,304,14.0,29.0,50,0.00,,,0.00,,2013-02-21 17:02:00,
2013-02-21 12:11:00,33.0,16.0,30.10,NW,304,14.0,29.0,50,0.00,,,0.00,,2013-02-21 17:11:00,
2013-02-21 12:21:00,34.0,17.0,30.09,WNW,301,14.0,27.0,49,0.00,,,0.00,,2013-02-21 17:21:00,
2013-02-21 12:32:00,34.0,17.0,30.09,WNW,301,14.0,27.0,49,0.00,,,0.00,,2013-02-21 17:32:00,
2013-02-21 12:42:00,34.0,17.0,30.09,WNW,301,14.0,27.0,49,0.00,,,0.00,,2013-02-21 17:42:00,
2013-02-21 12:52:00,34.0,17.0,30.07,North,354,19.0,24.0,50,0.00,,,0.00,,2013-02-21 17:52:00,
2013-02-21 13:02:00,34.0,17.0,30.07,North,354,19.0,24.0,50,0.00,,,0.00,,2013-02-21 18:02:00,
2013-02-21 13:12:00,34.0,17.0,30.07,North,354,19.0,24.0,50,0.00,,,0.00,,2013-02-21 18:12:00,
2013-02-21 13:22:00,35.0,18.0,30.08,NNW,348,12.0,24.0,50,0.00,,,0.00,,2013-02-21 18:22:00,
2013-02-21 13:32:00,35.0,18.0,30.08,NNW,348,12.0,24.0,50,0.00,,,0.00,,2013-02-21 18:32:00,
2013-02-21 13:42:00,35.0,18.0,30.08,NNW,348,12.0,24.0,50,0.00,,,0.00,,2013-02-21 18:42:00,
2013-02-21 13:52:00,35.0,18.0,30.07,WNW,290,17.0,27.0,49,0.00,,,0.00,,2013-02-21 18:52:00,
2013-02-21 14:01:00,35.0,18.0,30.07,WNW,290,17.0,27.0,49,0.00,,,0.00,,2013-02-21 19:01:00,
2013-02-21 14:12:00,35.0,18.0,30.07,WNW,290,17.0,27.0,49,0.00,,,0.00,,2013-02-21 19:12:00,
2013-02-21 14:21:00,35.0,17.0,30.07,West,277,19.0,27.0,48,0.00,,,0.00,,2013-02-21 19:21:00,
2013-02-21 14:32:00,35.0,17.0,30.07,West,277,19.0,27.0,48,0.00,,,0.00,,2013-02-21 19:32:00,
2013-02-21 14:42:00,35.0,17.0,30.07,West,277,19.0,27.0,48,0.00,,,0.00,,2013-02-21 19:42:00,
2013-02-21 14:52:00,36.0,18.0,30.08,NW,311,14.0,27.0,48,0.00,,,0.00,,2013-02-21 19:52:00,
2013-02-21 15:01:00,36.0,18.0,30.08,NW,311,14.0,27.0,48,0.00,,,0.00,,2013-02-21 20:01:00,
2013-02-21 15:11:00,36.0,18.0,30.07,NW,312,12.0,24.0,47,0.00,,,0.00,,2013-02-21 20:11:00,
2013-02-21 15:21:00,36.0,18.0,30.07,NW,312,12.0,24.0,47,0.00,,,0.00,,2013-02-21 20:21:00,
2013-02-21 15:32:00,36.0,18.0,30.07,NW,312,12.0,24.0,47,0.00,,,0.00,,2013-02-21 20:32:00,
2013-02-21 15:42:00,36.0,18.0,30.07,NW,312,12.0,24.0,47,0.00,,,0.00,,2013-02-21 20:42:00,
2013-02-21 15:53:00,37.0,19.0,30.09,NW,309,10.0,26.0,47,0.00,,,0.00,,2013-02-21 20:53:00,
2013-02-21 16:02:00,37.0,19.0,30.09,NW,309,10.0,26.0,47,0.00,,,0.00,,2013-02-21 21:02:00,
2013-02-21 16:12:00,37.0,19.0,30.09,NW,309,10.0,26.0,47,0.00,,,0.00,,2013-02-21 21:12:00,
2013-02-21 16:22:00,37.0,18.0,30.10,SW,214,17.0,25.0,46,0.00,,,0.00,,2013-02-21 21:22:00,
2013-02-21 16:32:00,37.0,18.0,30.10,SW,214,17.0,25.0,46,0.00,,,0.00,,2013-02-21 21:32:00,
2013-02-21 16:42:00,37.0,19.0,30.11,NNW,343,12.0,24.0,48,0.00,,,0.00,,2013-02-21 21:42:00,
2013-02-21 16:52:00,37.0,19.0,30.11,NNW,343,12.0,24.0,48,0.00,,,0.00,,2013-02-21 21:52:00,
2013-02-21 17:01:00,37.0,19.0,30.11,NNW,343,12.0,24.0,48,0.00,,,0.00,,2013-02-21 22:01:00,
2013-02-21 17:11:00,37.0,19.0,30.11,NNW,343,12.0,24.0,48,0.00,,,0.00,,2013-02-21 22:11:00,
2013-02-21 17:21:00,37.0,19.0,30.12,West,267,17.0,24.0,48,0.00,,,0.00,,2013-02-21 22:21:00,
2013-02-21 17:32:00,37.0,19.0,30.12,West,267,17.0,24.0,48,0.00,,,0.00,,2013-02-21 22:32:00,
2013-02-21 17:42:00,37.0,19.0,30.12,West,267,17.0,24.0,48,0.00,,,0.00,,2013-02-21 22:42:00,
2013-02-21 17:52:00,36.0,19.0,30.12,NNW,340,9.0,20.0,50,0.00,,,0.00,,2013-02-21 22:52:00,
2013-02-21 18:01:00,36.0,19.0,30.12,NNW,340,9.0,20.0,50,0.00,,,0.00,,2013-02-21 23:01:00,
2013-02-21 18:11:00,36.0,19.0,30.12,NNW,340,9.0,20.0,50,0.00,,,0.00,,2013-02-21 23:11:00,
2013-02-21 18:21:00,35.0,20.0,30.15,WNW,285,4.0,17.0,53,0.00,,,0.00,,2013-02-21 23:21:00,
2013-02-21 18:32:00,35.0,20.0,30.15,WNW,285,4.0,17.0,53,0.00,,,0.00,,2013-02-21 23:32:00,
2013-02-21 18:42:00,35.0,20.0,30.15,WNW,285,4.0,17.0,53,0.00,,,0.00,,2013-02-21 23:42:00,
2013-02-21 18:53:00,34.0,20.0,30.18,WNW,297,5.0,13.0,55,0.00,,,0.00,,2013-02-21 23:53:00,
2013-02-21 19:01:00,34.0,20.0,30.18,WNW,297,5.0,13.0,55,0.00,,,0.00,,2013-02-22 00:01:00,
2013-02-21 19:11:00,34.0,20.0,30.18,WNW,297,5.0,13.0,55,0.00,,,0.00,,2013-02-22 00:11:00,
2013-02-21 19:22:00,33.0,19.0,30.22,NW,323,8.0,12.0,57,0.00,,,0.00,,2013-02-22 00:22:00,
2013-02-21 19:32:00,33.0,19.0,30.22,NW,323,8.0,12.0,57,0.00,,,0.00,,2013-02-22 00:32:00,
2013-02-21 19:42:00,33.0,19.0,30.22,NW,323,8.0,12.0,57,0.00,,,0.00,,2013-02-22 00:42:00,
2013-02-21 19:52:00,33.0,20.0,30.22,WNW,300,6.0,12.0,58,0.00,,,0.00,,2013-02-22 00:52:00,
2013-02-21 20:01:00,33.0,20.0,30.22,WNW,300,6.0,12.0,58,0.00,,,0.00,,2013-02-22 01:01:00,
2013-02-21 20:11:00,33.0,20.0,30.22,WNW,300,6.0,12.0,58,0.00,,,0.00,,2013-02-22 01:11:00,
2013-02-21 20:22:00,32.0,19.0,30.24,WNW,291,5.0,11.0,59,0.00,,,0.00,,2013-02-22 01:22:00,
2013-02-21 20:32:00,32.0,19.0,30.24,WNW,291,5.0,11.0,59,0.00,,,0.00,,2013-02-22 01:32:00,
2013-02-21 20:42:00,32.0,19.0,30.24,WNW,291,5.0,11.0,59,0.00,,,0.00,,2013-02-22 01:42:00,
2013-02-21 20:52:00,32.0,20.0,30.24,WNW,302,7.0,11.0,60,0.00,,,0.00,,2013-02-22 01:52:00,
2013-02-21 21:02:00,32.0,20.0,30.24,WNW,302,7.0,11.0,60,0.00,,,0.00,,2013-02-22 02:02:00,
2013-02-21 21:11:00,32.0,20.0,30.24,WNW,302,7.0,11.0,60,0.00,,,0.00,,2013-02-22 02:11:00,
2013-02-21 21:21:00,31.0,20.0,30.23,West,270,7.0,10.0,62,0.00,,,0.00,,2013-02-22 02:21:00,
2013-02-21 21:32:00,31.0,20.0,30.23,West,270,7.0,10.0,62,0.00,,,0.00,,2013-02-22 02:32:00,
2013-02-21 21:42:00,31.0,20.0,30.23,West,270,7.0,10.0,62,0.00,,,0.00,,2013-02-22 02:42:00,
2013-02-21 21:52:00,31.0,20.0,30.25,NW,325,6.0,11.0,62,0.00,,,0.00,,2013-02-22 02:52:00,
2013-02-21 22:02:00,31.0,20.0,30.25,NW,325,6.0,11.0,62,0.00,,,0.00,,2013-02-22 03:02:00,
2013-02-21 22:11:00,31.0,20.0,30.25,NW,325,6.0,11.0,62,0.00,,,0.00,,2013-02-22 03:11:00,
2013-02-21 22:21:00,31.0,20.0,30.25,NW,325,6.0,11.0,62,0.00,,,0.00,,2013-02-22 03:21:00,
2013-02-21 22:52:00,31.0,20.0,30.27,WNW,295,8.0,12.0,62,0.00,,,0.00,,2013-02-22 03:52:00,
2013-02-21 23:02:00,31.0,20.0,30.27,WNW,295,8.0,12.0,62,0.00,,,0.00,,2013-02-22 04:02:00,
2013-02-21 23:11:00,31.0,20.0,30.27,WNW,295,8.0,12.0,62,0.00,,,0.00,,2013-02-22 04:11:00,
2013-02-21 23:21:00,31.0,20.0,30.29,NW,325,3.0,12.0,63,0.00,,,0.00,,2013-02-22 04:21:00,
2013-02-21 23:32:00,31.0,20.0,30.29,NW,325,3.0,12.0,63,0.00,,,0.00,,2013-02-22 04:32:00,
2013-02-21 23:42:00,31.0,20.0,30.29,NW,325,3.0,12.0,63,0.00,,,0.00,,2013-02-22 04:42:00,
2013-02-21 23:52:00,31.0,20.0,30.29,NNW,340,7.0,10.0,63,0.00,,,0.00,,2013-02-22 04:52:00,